Location: ?ern� Novina
(50.6762°N, 14.8696°E)
Time: 16:03:17
(UTC+00:00)

Cosmos 2154 Rocket - Pass Details

Date: 03 March 2021
Orbit: 966 x 996 km, 82.9° (Epoch: 13 April)

Event Time Altitude Azimuth Distance (km) Brightness Sun altitude
Rises 17:34:53 0° 176° (S) 3,657 7.0 -8.6°
Reaches altitude 10° 17:37:24 10° 173° (S) 2,710 6.3 -9.0°
Maximum altitude 17:43:31 64° 94° (E) 1,071 4.0 -10.0°
Drops below altitude 10° 17:49:38 10° 15° (NNE) 2,719 6.2 -11.0°
Sets 17:52:10 0° 12° (NNE) 3,670 6.9 -11.4°
